Clarksville, TN

10:55 AM CDT on April 26, 2017 (GMT -0500)
Outlaw

Weather History for KCKV - January, 2013

Change the Weather History Date:

Wednesday, January 30, 2013

  Actual Average Record
Temperature  
Mean Temperature 54 °F 36 °F  
Max Temperature 72 °F 46 °F 75 °F (1975)
Min Temperature 34 °F 26 °F -6 °F (1966)
Degree Days  
Heating Degree Days 12    
Month to date heating degree days  
Since 1 July heating degree days  
Cooling Degree Days 0    
Month to date cooling degree days  
Year to date cooling degree days  
Growing Degree Days 4 (Base 50)    
Moisture  
Dew Point 46 °F    
Average Humidity 78    
Maximum Humidity 100    
Minimum Humidity 59    
Precipitation  
Precipitation 1.23 in 0.10 in 4.24 in (1956)
Month to date precipitation 3.20  
Year to date precipitation 3.20  
Sea Level Pressure  
Sea Level Pressure 29.57 in    
Wind  
Wind Speed 19 mph (WSW)    
Max Wind Speed 26 mph    
Max Gust Speed 44 mph    
Visibility 8 miles    
Events Rain , Thunderstorm    
T = Trace of Precipitation, MM = Missing Value Source: NWS Daily Summary

Daily Weather History Graph

Daily Weather History Graph

Search for Another Location

Airport or City:

Trip Planner

Search our weather history database for the weather conditions in past years. The results will help you decide how hot, cold, wet, or windy it might be!

Date:

Astronomy

Jan. 30, 2013 Rise Set
Actual Time 6:52 AM CST 5:13 PM CST
Civil Twilight 6:25 AM CST 5:40 PM CST
Nautical Twilight 5:54 AM CST 6:11 PM CST
Astronomical Twilight 5:24 AM CST 6:42 PM CST
Moon 9:03 PM CST (1/30) 8:27 AM CST (1/30)
Length of Visible Light 11h 15m
Length of Day
10h 20m
Waning Gibbous, 87% of the Moon is Illuminated
Jan 30
Waning Gibbous
Feb 3
Last Quarter
Feb 10
New
Feb 17
First Quarter
Feb 25
Full

Hourly Weather History & Observations

Time (CST) Temp. Windchill Dew Point Humidity Pressure Visibility Wind Dir Wind Speed Gust Speed Precip Events Conditions
12:04 AM 71.6 °F - 60.8 °F 69% 29.54 in 10.0 mi South 26.5 mph 40.3 mph N/A   Overcast
12:52 AM 72.0 °F - 60.1 °F 66% 29.47 in 10.0 mi South 21.9 mph 34.5 mph N/A   Mostly Cloudy
1:50 AM 69.8 °F - 62.6 °F 78% 29.52 in 5.0 mi SSW 26.5 mph 39.1 mph 0.04 in Rain , Thunderstorm Light Rain
1:52 AM 69.1 °F - 62.1 °F 78% 29.51 in 5.0 mi WSW 25.3 mph 39.1 mph 0.04 in Rain , Thunderstorm Light Thunderstorms and Rain
1:57 AM 62.6 °F - 59.0 °F 88% 29.50 in 1.8 mi West 21.9 mph 43.7 mph 0.16 in Rain , Thunderstorm Heavy Thunderstorms and Rain
2:03 AM 60.8 °F - 57.2 °F 88% 29.49 in 0.8 mi North - - 0.32 in Rain , Thunderstorm Heavy Thunderstorms and Rain
2:11 AM 60.8 °F - 57.2 °F 88% 29.48 in 1.0 mi West 19.6 mph 26.5 mph 0.50 in Rain Heavy Rain
2:41 AM 57.2 °F - 53.6 °F 88% 29.54 in 3.0 mi WNW 25.3 mph 38.0 mph 0.85 in Rain Rain
2:52 AM 55.9 °F - 53.1 °F 90% 29.54 in 3.0 mi WNW 17.3 mph 28.8 mph 0.90 in Rain Heavy Rain
3:52 AM 54.0 °F - 52.0 °F 93% 29.55 in 10.0 mi WNW 5.8 mph - 0.08 in Rain Light Rain
4:52 AM 53.1 °F - 52.0 °F 96% 29.55 in 8.0 mi SSE 5.8 mph - 0.07 in Rain Light Rain
5:52 AM 54.0 °F - 52.0 °F 93% 29.54 in 7.0 mi SE 6.9 mph - 0.06 in Rain Light Rain
6:33 AM 53.6 °F - 53.6 °F 100% 29.52 in 6.0 mi SE 11.5 mph - 0.06 in Rain Light Rain
6:52 AM 54.0 °F - 53.1 °F 97% 29.52 in 10.0 mi SSE 10.4 mph - 0.07 in Rain Light Rain
7:52 AM 54.0 °F - 52.0 °F 93% 29.52 in 10.0 mi South 9.2 mph - 0.00 in Rain Light Rain
8:52 AM 54.0 °F - 52.0 °F 93% 29.52 in 10.0 mi SSW 10.4 mph - 0.00 in   Mostly Cloudy
9:52 AM 55.0 °F - 51.1 °F 86% 29.52 in 10.0 mi SW 10.4 mph - N/A   Partly Cloudy
10:52 AM 55.9 °F - 48.9 °F 77% 29.51 in 10.0 mi SSW 10.4 mph 19.6 mph N/A   Scattered Clouds
11:52 AM 57.0 °F - 48.9 °F 74% 29.46 in 10.0 mi SW 17.3 mph 21.9 mph N/A   Scattered Clouds
12:52 PM 57.0 °F - 46.9 °F 69% 29.47 in 10.0 mi SW 16.1 mph 25.3 mph N/A   Mostly Cloudy
1:52 PM 57.0 °F - 45.0 °F 64% 29.44 in 10.0 mi SW 13.8 mph 28.8 mph N/A   Overcast
2:52 PM 55.9 °F - 42.1 °F 60% 29.46 in 10.0 mi WSW 15.0 mph 24.2 mph N/A   Overcast
3:48 PM 48.2 °F - 42.8 °F 82% 29.52 in 9.0 mi West 18.4 mph 29.9 mph 0.01 in Rain Light Rain
3:52 PM 46.9 °F - 43.0 °F 86% 29.52 in 9.0 mi West 19.6 mph 29.9 mph 0.01 in Rain Light Rain
4:52 PM 45.0 °F 37.6 °F 37.0 °F 74% 29.56 in 10.0 mi West 17.3 mph 27.6 mph 0.00 in   Mostly Cloudy
5:52 PM 43.0 °F 33.5 °F 30.9 °F 62% 29.61 in 10.0 mi West 24.2 mph 33.4 mph N/A   Overcast
6:33 PM 41.0 °F 31.1 °F 30.2 °F 65% 29.65 in 10.0 mi WNW 23.0 mph 39.1 mph N/A   Overcast
6:52 PM 39.9 °F 32.5 °F 30.0 °F 68% 29.69 in 10.0 mi WNW 12.7 mph 29.9 mph N/A   Unknown
7:52 PM 37.0 °F 25.6 °F 24.1 °F 59% 29.75 in 10.0 mi WNW 24.2 mph 32.2 mph N/A   Overcast
8:52 PM 36.0 °F 25.6 °F 24.1 °F 62% 29.81 in 10.0 mi West 18.4 mph 27.6 mph N/A   Overcast
9:52 PM 35.1 °F 25.9 °F 21.9 °F 59% 29.85 in 10.0 mi WNW 13.8 mph 28.8 mph N/A   Overcast
10:52 PM 35.1 °F 27.9 °F 24.1 °F 64% 29.88 in 10.0 mi West 9.2 mph 21.9 mph N/A   Overcast
11:52 PM 34.0 °F 21.8 °F 21.9 °F 61% 29.91 in 10.0 mi West 23.0 mph 28.8 mph N/A   Overcast